[[{"header":{"parameterUnit":"m.s-1","parameterCategory":1,"la1":30.2991,"la2":30.254,"lo1":-89.0895,"lo2":-89.0444,"dy":0.0017,"dx":0.0017,"nx":28,"ny":28,"refTime":"2023-04-17T21:00:00:Z","depth":0,"parameterNumber":2,"parameterNumberName":"U-component_of_WINDS"},"data":[0,0,0,0,0,0,0,0,0,0,0,0,0,0,0,0,0,0,0,0,0,0,0,0,0,0,0,0,0,0,0,0,0,0,0,0,0,0,0,0,0,0,0,0,0,0,0,0,0,0,0,0,0,0,0,0,0,0,-0.5918,-0.5917,0,-0.5803,-0.5802,-0.5801,-0.5731,-0.5731,-0.5731,-0.5731,-0.5612,-0.5609,-0.5606,0,0,0,0,0,0,0,0,0,0,0,0,0,-0.6077,-0.6075,-0.5918,-0.5917,-0.5915,-0.5803,-0.5802,-0.58,-0.5732,-0.5731,-0.5731,-0.573,-0.5613,-0.561,-0.5606,0,0,0,0,0,0,0,0,0,0,0,0,0,-0.599,-0.6074,-0.5918,-0.5867,-0.5862,-0.5804,-0.5802,-0.58,-0.5732,-0.5731,-0.5731,-0.573,-0.5614,-0.561,-0.5606,-0.5589,0,0,-0.5593,-0.5591,0,0,0,0,0,0,0,0,-0.5995,-0.5984,-0.5876,-0.5871,-0.5864,-0.5781,-0.5814,-0.5729,-0.5732,-0.5781,-0.5731,-0.573,-0.5669,-0.566,-0.5639,-0.5583,-0.5578,-0.5592,-0.559,-0.5588,-0.5587,0,0,0,0,0,0,0,-0.6001,-0.5989,-0.5872,-0.5875,-0.5867,-0.585,-0.5837,-0.5798,-0.5729,-0.5777,-0.5771,-0.5759,-0.5665,-0.5644,-0.5636,-0.5577,-0.5592,-0.5589,-0.5586,-0.5584,-0.5502,-0.5502,0,0,0,0,0,0,-0.6015,-0.5994,-0.5876,-0.5869,-0.593,-0.5848,-0.5833,-0.5808,-0.5729,-0.5717,-0.5759,-0.5756,-0.5651,-0.5641,-0.5632,-0.5607,-0.5588,-0.5584,-0.5581,-0.5501,-0.5502,-0.5502,0,0,0,0,0,0,-0.6019,-0.6005,-0.5881,-0.593,-0.5913,-0.5846,-0.5818,-0.5806,-0.5785,-0.5716,-0.5703,-0.575,-0.565,-0.5638,-0.56,-0.5602,-0.5582,-0.5578,-0.5501,-0.5502,-0.5502,-0.5559,0,0,0,0,0,0,-0.6024,-0.6007,-0.6,-0.5931,-0.5911,-0.5852,-0.5818,-0.5804,-0.5778,-0.5772,-0.5704,-0.5692,-0.5649,-0.5607,-0.5596,-0.5596,-0.5575,-0.5501,-0.5501,-0.5502,-0.5557,-0.5561,-0.5565,0,0,0,0,0,-0.603,-0.602,-0.6,-0.5986,-0.5901,-0.5852,-0.5841,-0.5792,-0.5778,-0.577,-0.5726,-0.5694,-0.5604,-0.5604,-0.5591,-0.559,-0.55,-0.5501,-0.5502,-0.5555,-0.556,-0.5565,0,0,0,0,0,0,-0.6092,-0.601,-0.5987,-0.5955,-0.5911,-0.5841,-0.5829,-0.5799,-0.5758,-0.5755,-0.5695,-0.568,-0.5649,-0.5615,-0.5617,-0.557,-0.5548,-0.5547,-0.5593,-0.5598,-0.5602,-0.5611,-0.5571,0,0,0,0,0,-0.6102,-0.6069,-0.6,-0.5978,-0.5957,-0.5898,-0.5874,-0.584,-0.5792,-0.5773,-0.5727,-0.5681,-0.5642,-0.5618,-0.5578,-0.5551,-0.5536,-0.5544,-0.5548,-0.5552,-0.5552,-0.5535,-0.5539,-0.5505,-0.5505,-0.5505,0,0,-0.6122,-0.6073,-0.6056,-0.5989,-0.5951,-0.5919,-0.5882,-0.5849,-0.5825,-0.5768,-0.5731,-0.5695,-0.564,-0.5608,-0.5591,-0.5579,-0.5557,-0.5553,-0.5557,-0.5554,-0.5537,-0.554,-0.5543,-0.5506,-0.5506,-0.5506,0,0,-0.6142,-0.6102,-0.608,-0.6043,-0.5986,-0.5946,-0.5941,-0.5875,-0.585,-0.5811,-0.5768,-0.5738,-0.5672,-0.5635,-0.5608,-0.5615,-0.5584,-0.5604,-0.5627,-0.5612,-0.5614,-0.5616,-0.562,-0.5622,-0.5603,-0.5603,-0.5603,0,-0.6174,-0.6124,-0.6072,-0.6043,-0.6015,-0.5962,-0.5939,-0.5906,-0.5839,-0.5821,-0.5808,-0.5725,-0.5684,-0.5643,-0.5645,-0.5624,-0.5617,-0.5611,-0.5618,-0.562,-0.5621,-0.5623,-0.5625,-0.5606,-0.5606,-0.5605,-0.5605,0,-0.6167,-0.6133,-0.6122,-0.606,-0.603,-0.6004,-0.5948,-0.5925,-0.5894,-0.5855,-0.5817,-0.5766,-0.5716,-0.5703,-0.5672,-0.5658,-0.5652,-0.563,-0.5607,-0.5628,-0.5629,-0.563,-0.561,-0.5609,-0.5608,-0.5607,0,0,-0.6224,-0.6133,-0.613,-0.6101,-0.6035,-0.6008,-0.5979,-0.5931,-0.5912,-0.5867,-0.5842,-0.5788,-0.5767,-0.5736,-0.57,-0.5687,-0.5697,-0.5666,-0.5664,-0.5674,-0.5679,-0.5697,-0.5699,-0.5676,-0.5676,-0.5676,-0.5684,0,-0.6235,-0.6182,-0.6134,-0.6099,-0.6067,-0.6017,-0.5992,-0.5949,-0.5913,-0.588,-0.5839,-0.5803,-0.5777,-0.5758,-0.5743,-0.5699,-0.5697,-0.5698,-0.5652,-0.5651,-0.5669,-0.57,-0.5718,-0.5729,-0.5684,-0.5684,-0.5684,0,-0.6241,-0.62,-0.6161,-0.6099,-0.6083,-0.6062,-0.6014,-0.5984,-0.5934,-0.5908,-0.5874,-0.5837,-0.5804,-0.5785,-0.574,-0.5742,-0.572,-0.5696,-0.5695,-0.5689,-0.567,-0.5696,-0.573,-0.5733,-0.5684,-0.5684,-0.5684,0,-0.6287,-0.6222,-0.619,-0.6167,-0.6093,-0.6079,-0.6048,-0.5997,-0.5971,-0.5929,-0.5912,-0.5866,-0.5842,-0.5807,-0.5758,-0.5749,-0.5719,-0.5695,-0.5697,-0.5698,-0.5693,-0.5694,-0.5726,-0.5678,-0.5678,-0.5678,-0.5678,0,-0.6305,-0.6284,-0.621,-0.6191,-0.6165,-0.6111,-0.6087,-0.6051,-0.6007,-0.598,-0.5933,-0.5909,-0.5846,-0.5814,-0.5775,-0.5744,-0.5733,-0.5712,-0.5702,-0.5716,-0.5719,-0.5702,-0.57,-0.5679,-0.5679,-0.5679,-0.5679,0,-0.6353,-0.6302,-0.6265,-0.6198,-0.6181,-0.6165,-0.6108,-0.6088,-0.6049,-0.6015,-0.6004,-0.5943,-0.5903,-0.5851,-0.5794,-0.5768,-0.5742,-0.5726,-0.5759,-0.5754,-0.5758,-0.5759,-0.5781,-0.5781,-0.5733,-0.5734,-0.5734,0,-0.6368,-0.635,-0.6282,-0.6261,-0.6231,-0.6197,-0.6171,-0.6117,-0.6091,-0.6033,-0.602,-0.5976,-0.5938,-0.5877,-0.5827,-0.5784,-0.5767,-0.5777,-0.576,-0.5775,-0.5768,-0.577,-0.5768,-0.5782,-0.5783,-0.5783,-0.5784,0,-0.6401,-0.6377,-0.6341,-0.6296,-0.6266,-0.6228,-0.6188,-0.6173,-0.611,-0.6084,-0.6043,-0.6014,-0.5956,-0.5914,-0.5864,-0.5831,-0.5797,-0.579,-0.5788,-0.5803,-0.5823,-0.5813,-0.5772,-0.579,-0.5789,-0.5789,-0.5788,-0.5788,-0.6433,-0.6415,-0.6365,-0.6326,-0.6291,-0.6254,-0.6232,-0.6191,-0.6155,-0.6105,-0.6075,-0.6035,-0.5985,-0.5915,-0.5884,-0.5852,-0.5839,-0.5836,-0.5835,-0.5836,-0.5841,-0.5828,-0.5842,-0.5842,-0.5842,-0.5842,-0.5841,0,-0.6464,-0.6429,-0.6394,-0.634,-0.631,-0.6281,-0.6235,-0.6212,-0.6178,-0.6134,-0.6099,-0.6052,-0.601,-0.5958,-0.5913,-0.5897,-0.5881,-0.5887,-0.5888,-0.5881,-0.5855,-0.5861,-0.5902,-0.5902,-0.5902,-0.5902,-0.5902,-0.5902,-0.6477,-0.6446,-0.6416,-0.6367,-0.6332,-0.6293,-0.627,-0.6236,-0.6202,-0.6151,-0.6117,-0.6083,-0.6036,-0.5988,-0.5948,-0.5934,-0.592,-0.5931,-0.5913,-0.5889,-0.5883,-0.5878,-0.5884,-0.5929,-0.5929,-0.5942,-0.5942,-0.5942]},{"header":{"parameterUnit":"m.s-1","parameterCategory":1,"la1":30.2991,"la2":30.254,"lo1":-89.0895,"lo2":-89.0444,"dy":0.0017,"dx":0.0017,"nx":28,"ny":28,"refTime":"2023-04-17T21:00:00:Z","depth":0,"parameterNumber":3,"parameterNumberName":"V-component_of_WINDS"},"data":[0,0,0,0,0,0,0,0,0,0,0,0,0,0,0,0,0,0,0,0,0,0,0,0,0,0,0,0,0,0,0,0,0,0,0,0,0,0,0,0,0,0,0,0,0,0,0,0,0,0,0,0,0,0,0,0,0,0,1.4799,1.4799,0,1.4796,1.4796,1.4796,1.4766,1.4765,1.4764,1.4763,1.4759,1.476,1.476,0,0,0,0,0,0,0,0,0,0,0,0,0,1.4777,1.4778,1.4799,1.4799,1.4799,1.4796,1.4796,1.4796,1.4766,1.4765,1.4764,1.4763,1.4759,1.476,1.476,0,0,0,0,0,0,0,0,0,0,0,0,0,1.4782,1.4778,1.4799,1.4784,1.4782,1.4796,1.4796,1.4796,1.4766,1.4765,1.4764,1.4763,1.4759,1.476,1.4761,1.4788,0,0,1.4763,1.4764,0,0,0,0,0,0,0,0,1.4781,1.4782,1.4786,1.4785,1.4783,1.478,1.4786,1.4793,1.4766,1.4772,1.4763,1.4762,1.4767,1.4767,1.4769,1.4788,1.4788,1.4763,1.4764,1.4764,1.4764,0,0,0,0,0,0,0,1.4781,1.4782,1.4798,1.4786,1.4784,1.4776,1.4776,1.4788,1.4776,1.4772,1.4769,1.4769,1.4766,1.4768,1.4769,1.4788,1.4763,1.4764,1.4765,1.4765,1.4827,1.4828,0,0,0,0,0,0,1.4783,1.4782,1.4798,1.4798,1.478,1.4778,1.4777,1.4782,1.4776,1.4774,1.477,1.4768,1.4767,1.4768,1.4768,1.4798,1.4764,1.4765,1.4766,1.4826,1.4827,1.4828,0,0,0,0,0,0,1.4783,1.4785,1.4798,1.4789,1.479,1.4779,1.4785,1.4783,1.4785,1.4775,1.4772,1.4775,1.4766,1.4767,1.4783,1.4798,1.4765,1.4766,1.4824,1.4826,1.4827,1.486,0,0,0,0,0,0,1.4782,1.4785,1.4796,1.479,1.4791,1.4814,1.4786,1.4783,1.4787,1.4783,1.4778,1.4776,1.4766,1.4782,1.4784,1.4799,1.4767,1.4823,1.4825,1.4827,1.4858,1.4863,1.4867,0,0,0,0,0,1.4782,1.4806,1.4797,1.4799,1.4805,1.4815,1.4815,1.4802,1.4788,1.4798,1.4791,1.4777,1.4796,1.4784,1.4786,1.4801,1.4822,1.4824,1.4827,1.4856,1.4862,1.4867,0,0,0,0,0,0,1.4815,1.4805,1.4795,1.4818,1.4817,1.481,1.4823,1.481,1.4813,1.481,1.4794,1.4793,1.481,1.4807,1.4794,1.4826,1.4806,1.4809,1.4827,1.4833,1.4838,1.4838,1.4768,0,0,0,0,0,1.4825,1.4834,1.4825,1.4846,1.4846,1.4834,1.4838,1.4828,1.4827,1.4826,1.4821,1.4819,1.4825,1.4829,1.4834,1.4857,1.4854,1.4868,1.4873,1.4877,1.488,1.4889,1.4895,1.4836,1.4836,1.4836,0,0,1.4845,1.4841,1.4848,1.4852,1.4851,1.4859,1.4834,1.4845,1.4851,1.4828,1.4842,1.4838,1.4835,1.4854,1.4862,1.4852,1.4895,1.488,1.4883,1.4884,1.4892,1.4898,1.4903,1.4838,1.4838,1.4837,0,0,1.4887,1.4886,1.4902,1.49,1.4898,1.4889,1.4893,1.4887,1.4883,1.4897,1.4879,1.4885,1.4896,1.4894,1.4895,1.4933,1.4919,1.4935,1.496,1.4969,1.4974,1.4978,1.499,1.4994,1.4938,1.4938,1.4938,0,1.4913,1.4926,1.4912,1.4923,1.4925,1.4903,1.4919,1.4918,1.4917,1.4918,1.4907,1.4918,1.4915,1.4932,1.4941,1.4943,1.4946,1.4936,1.4974,1.4978,1.4982,1.4993,1.4997,1.494,1.494,1.494,1.4939,0,1.4957,1.4966,1.4979,1.4978,1.4981,1.4995,1.4982,1.4986,1.4976,1.4968,1.4981,1.4977,1.4979,1.4982,1.4973,1.4998,1.4991,1.4977,1.4957,1.4989,1.4999,1.5004,1.4943,1.4942,1.4941,1.4941,0,0,1.502,1.5009,1.5014,1.5012,1.5007,1.5014,1.5025,1.5027,1.5031,1.5031,1.5039,1.5047,1.5034,1.5034,1.5024,1.5032,1.5061,1.5017,1.5017,1.5024,1.5085,1.5095,1.51,1.5051,1.5052,1.5053,1.5085,0,1.5058,1.5078,1.5064,1.5086,1.5093,1.5072,1.5081,1.5079,1.5072,1.5076,1.5068,1.5073,1.5056,1.5056,1.5064,1.5056,1.5072,1.5053,1.5057,1.5058,1.5057,1.5106,1.5116,1.5147,1.5089,1.509,1.509,0,1.5106,1.5107,1.5129,1.512,1.5122,1.5132,1.5131,1.5136,1.5132,1.5126,1.5125,1.5112,1.5121,1.5101,1.5113,1.51,1.5101,1.5097,1.5098,1.5097,1.5075,1.5104,1.5156,1.516,1.5097,1.5096,1.5096,0,1.5148,1.5154,1.5168,1.5167,1.5158,1.5164,1.516,1.5155,1.5156,1.5156,1.5156,1.5157,1.5157,1.5157,1.5143,1.5131,1.5156,1.5136,1.515,1.515,1.5156,1.5155,1.5207,1.5159,1.5159,1.5158,1.5158,0,1.5191,1.5205,1.5186,1.5194,1.5208,1.5192,1.5206,1.52,1.5195,1.52,1.5183,1.5188,1.517,1.5174,1.5163,1.5173,1.5174,1.5168,1.5165,1.5169,1.5169,1.5169,1.5166,1.516,1.5159,1.5159,1.5159,0,1.524,1.5228,1.524,1.523,1.5227,1.5238,1.5228,1.5235,1.5226,1.5233,1.5234,1.522,1.5222,1.5209,1.521,1.5202,1.5217,1.5211,1.5218,1.5216,1.523,1.5228,1.5282,1.5288,1.5237,1.5238,1.5238,0,1.5268,1.5278,1.5268,1.527,1.5267,1.5271,1.5272,1.5256,1.5258,1.5252,1.5259,1.526,1.526,1.5265,1.5254,1.5254,1.5247,1.5265,1.5247,1.525,1.5245,1.5244,1.5244,1.5269,1.527,1.527,1.5271,0,1.5319,1.5311,1.5314,1.5313,1.5314,1.5313,1.531,1.5313,1.5296,1.5298,1.53,1.53,1.53,1.5301,1.5298,1.5293,1.5278,1.5277,1.528,1.5283,1.5287,1.5283,1.5228,1.5276,1.5275,1.5275,1.5274,1.5274,1.5356,1.5363,1.5357,1.5359,1.5355,1.5353,1.5357,1.5349,1.535,1.5349,1.5339,1.5343,1.5336,1.533,1.5327,1.5328,1.5319,1.5324,1.5325,1.5326,1.5328,1.5287,1.5328,1.5328,1.5328,1.5328,1.5328,0,1.5404,1.5399,1.5401,1.5397,1.5399,1.5385,1.5381,1.5382,1.5386,1.5381,1.5381,1.5382,1.5382,1.5371,1.537,1.5373,1.5366,1.5373,1.5372,1.537,1.5337,1.5334,1.5378,1.5378,1.5378,1.5378,1.5378,1.5378,1.543,1.544,1.5431,1.5439,1.5433,1.5436,1.5434,1.5431,1.5427,1.5429,1.5429,1.5422,1.5414,1.5411,1.541,1.5407,1.5406,1.5415,1.5409,1.5378,1.5373,1.5368,1.5365,1.5415,1.5415,1.5442,1.5442,1.5443]}]]